| time (UTC) | temp F | wind direction | speed knots | gust knots | rain 1hr in | rain 24hr in | rain mn in | humidity % | barometer mb |
| 20260506131402 | 41 | 77 | 1.7 | 7.0 | 0.02 | 0.35 | 0.30 | 93 | 1014.0 |
| 20260506125857 | 41 | 311 | 0.0 | 5.2 | 0.02 | 0.35 | 0.30 | 93 | 1014.2 |
| 20260506122903 | 42 | 23 | 2.6 | 8.7 | 0.03 | 0.39 | 0.29 | 93 | 1014.0 |
| 20260506121359 | 42 | 105 | 1.7 | 9.6 | 0.02 | 0.38 | 0.28 | 93 | 1014.1 |
| 20260506114412 | 41 | 286 | 0.9 | 5.2 | 0.02 | 0.39 | 0.27 | 93 | 1014.0 |
| 20260506112900 | 42 | 11 | 1.7 | 7.0 | 0.02 | 0.39 | 0.26 | 93 | 1014.1 |
| 20260506111353 | 41 | 67 | 0.9 | 6.1 | 0.02 | 0.39 | 0.26 | 93 | 1014.3 |
| 20260506104403 | 41 | 67 | 1.7 | 5.2 | 0.01 | 0.61 | 0.25 | 93 | 1014.6 |
| 20260506102853 | 41 | 331 | 0.9 | 4.3 | 0.02 | 0.61 | 0.24 | 93 | 1014.7 |
| 20260506095907 | 40 | 30 | 1.7 | 5.2 | 0.02 | 0.61 | 0.24 | 93 | 1014.5 |
| 20260506094402 | 40 | 355 | 1.7 | 5.2 | 0.02 | 0.73 | 0.24 | 93 | 1014.7 |
| 20260506092854 | 39 | 228 | 1.7 | 7.0 | 0.00 | 0.72 | 0.23 | 93 | 1014.6 |
| 20260506085907 | 39 | 233 | 0.0 | 1.7 | 0.01 | 0.72 | 0.23 | 93 | 1014.6 |
| 20260506084359 | 39 | 262 | 0.0 | 3.5 | 0.01 | 0.73 | 0.23 | 93 | 1014.3 |
| 20260506081405 | 39 | 285 | 0.0 | 1.7 | 0.02 | 0.73 | 0.23 | 93 | 1014.8 |
| 20260506072907 | 38 | 19 | 1.7 | 4.3 | 0.06 | 0.75 | 0.22 | 93 | 1014.7 |
| 20260506071400 | 38 | 68 | 0.0 | 3.5 | 0.10 | 0.73 | 0.20 | 93 | 1014.9 |
| 20260506061357 | 37 | 56 | 0.0 | 1.7 | 0.10 | 0.63 | 0.10 | 93 | 1015.3 |
| 20260506051359 | 38 | 83 | 0.0 | 1.7 | 0.00 | 0.52 | 0.00 | 93 | 1015.1 |
| 20260506042908 | 35 | 327 | 0.0 | 0.0 | 0.00 | 0.52 | 0.00 | 93 | 1015.1 |
| 20260506041401 | 36 | 327 | 0.0 | 0.0 | 0.00 | 0.52 | 0.00 | 93 | 1014.9 |
| 20260506035855 | 37 | 327 | 0.0 | 1.7 | 0.00 | 0.52 | 0.00 | 93 | 1015.1 |
| 20260506034351 | 38 | 74 | 0.0 | 1.7 | 0.00 | 0.52 | 0.00 | 93 | 1015.4 |
| 20260506031402 | 37 | 63 | 0.0 | 3.5 | 0.00 | 0.52 | 0.00 | 93 | 1016.0 |
| 20260506025855 | 37 | 23 | 0.0 | 0.9 | 0.00 | 0.52 | 0.00 | 93 | 1016.0 |
| 20260506022904 | 32 | 115 | 0.0 | 0.0 | 0.00 | 0.52 | 0.00 | 93 | 1016.2 |
| 20260506021356 | 33 | 115 | 0.0 | 0.0 | 0.00 | 0.52 | 0.00 | 93 | 1016.5 |
| 20260506014407 | 34 | 115 | 0.0 | 0.9 | 0.00 | 0.52 | 0.00 | 93 | 1016.5 |
| 20260506012859 | 34 | 115 | 0.0 | 4.3 | 0.00 | 0.52 | 0.00 | 93 | 1016.8 |
| 20260506011352 | 32 | 55 | 0.0 | 0.0 | 0.00 | 0.52 | 0.00 | 93 | 1017.0 |
| 20260506004405 | 31 | 55 | 0.0 | 0.0 | 0.00 | 0.52 | 0.00 | 93 | 1017.0 |
| 20260506002856 | 31 | 55 | 0.0 | 0.0 | 0.00 | 0.52 | 0.00 | 94 | 1017.2 |
| 20260505235904 | 33 | 55 | 0.0 | 0.0 | 0.00 | 0.52 | 0.00 | 93 | 1017.3 |
| 20260505232859 | 34 | 55 | 0.0 | 0.0 | 0.00 | 0.52 | 0.00 | 93 | 1017.6 |
| 20260505225906 | 37 | 55 | 0.0 | 0.0 | 0.00 | 0.52 | 0.00 | 93 | 1017.9 |
| 20260505224400 | 38 | 55 | 0.0 | 0.0 | 0.00 | 0.52 | 0.00 | 93 | 1017.8 |
| 20260505222852 | 38 | 55 | 0.0 | 1.7 | 0.00 | 0.52 | 0.00 | 93 | 1017.9 |
| 20260505215913 | 36 | 55 | 0.0 | 0.0 | 0.00 | 0.52 | 0.00 | 93 | 1018.2 |
| 20260505214402 | 36 | 55 | 0.0 | 0.0 | 0.00 | 0.52 | 0.52 | 93 | 1018.3 |
| 20260505212856 | 34 | 55 | 0.0 | 0.0 | 0.00 | 0.52 | 0.52 | 93 | 1018.3 |
| 20260505211353 | 35 | 55 | 0.0 | 0.0 | 0.00 | 0.52 | 0.52 | 93 | 1018.3 |
| 20260505204408 | 38 | 59 | 0.0 | 0.9 | 0.00 | 0.52 | 0.52 | 93 | 1018.2 |
| 20260505202858 | 39 | 59 | 0.0 | 1.7 | 0.00 | 0.52 | 0.52 | 93 | 1018.5 |
| 20260505195853 | 40 | 177 | 1.7 | 5.2 | 0.01 | 0.52 | 0.52 | 93 | 1018.5 |
| 20260505192906 | 40 | 58 | 0.0 | 0.9 | 0.01 | 0.52 | 0.52 | 93 | 1018.3 |
| 20260505185859 | 40 | 71 | 0.0 | 0.0 | 0.00 | 0.52 | 0.52 | 93 | 1018.0 |
| 20260505184352 | 40 | 71 | 0.0 | 0.0 | 0.00 | 0.52 | 0.52 | 93 | 1017.8 |
| 20260505181404 | 40 | 71 | 0.0 | 1.7 | 0.00 | 0.52 | 0.52 | 93 | 1017.5 |
| 20260505174403 | 40 | 76 | 0.0 | 1.7 | 0.01 | 0.52 | 0.52 | 93 | 1017.4 |
| 20260505172900 | 40 | 71 | 0.0 | 3.5 | 0.01 | 0.52 | 0.52 | 93 | 1017.5 |
| 20260505171355 | 40 | 84 | 0.0 | 3.5 | 0.01 | 0.52 | 0.52 | 93 | 1017.4 |
| 20260505164405 | 40 | 221 | 0.0 | 0.9 | 0.02 | 0.51 | 0.51 | 93 | 1017.4 |
| 20260505162853 | 40 | 205 | 0.0 | 1.7 | 0.02 | 0.51 | 0.51 | 93 | 1017.3 |
| 20260505151405 | 40 | 23 | 0.0 | 1.7 | 0.00 | 0.50 | 0.50 | 93 | 1017.6 |